Location: Agadir Mansour Mhndou
(31.2424°N, 8.7730°W)
Time: 06:26:14
(UTC+00:00)

Cosmos 1607 - Pass Details

Date: 16 October 2021
Orbit: 917 x 985 km, 65.0° (Epoch: 28 November)

Event Time Altitude Azimuth Distance (km) Brightness Sun altitude
Rises 19:28:07 0° 337° (NNW) 3,638 7.3 -19.2°
Reaches altitude 10° 19:30:45 10° 341° (NNW) 2,679 6.5 -19.7°
Maximum altitude 19:36:55 58° 60° (ENE) 1,081 3.9 -21.0°
Enters shadow 19:39:13 37° 121° (ESE) 1,417 4.4 -21.5°
